GFSMA_prec_precacc24_141.txt.gz
Total_Precipitation_Accumulation
0.10 0.11 0.11 0.12 0.10 0.05 0.03 0.02 0.02 0.02 0.02 0.03 0.04 0.01 0.03 0.07 0.10 0.21 0.23 0.08 0.04 0.25 0.49 0.59 0.44 0.50 0.43 0.27 0.20 0.16 0.17 0.11 0.03 0.01 0.01 0.01 0.02 0.02 0.01 0.02 0.05 0.05 0.05
0.16 0.20 0.16 0.14 0.12 0.08 0.05 0.03 0.03 0.02 0.02 0.01 0.04 0.05 0.01 0.04 0.09 0.13 0.22 0.13 0.07 0.08 0.37 0.71 0.70 0.42 0.29 0.31 0.28 0.19 0.14 0.10 0.06 0.04 0.02 0.01 0.02 0.02 0.01 0.01 0.03 0.04 0.04
0.21 0.21 0.23 0.19 0.13 0.09 0.09 0.09 0.08 0.03 0.02 0.02 0.03 0.11 0.08 0.03 0.05 0.07 0.19 0.21 0.11 0.01 0.09 0.63 0.83 0.53 0.24 0.24 0.17 0.17 0.16 0.11 0.10 0.08 0.04 0.02 0.01 0.01 0.01 0.02 0.01 0.02 0.03
0.23 0.23 0.23 0.20 0.16 0.12 0.09 0.10 0.11 0.07 0.03 0.03 0.03 0.05 0.04 0.05 0.02 0.05 0.09 0.15 0.22 0.07 0.00 0.11 0.53 0.43 0.22 0.16 0.15 0.11 0.11 0.09 0.07 0.06 0.04 0.01 0.01 0.01 0.01 0.01 0.01 0.02 0.02
0.27 0.23 0.22 0.16 0.21 0.21 0.15 0.16 0.19 0.14 0.06 0.03 0.03 0.09 0.08 0.03 0.03 0.02 0.04 0.10 0.20 0.24 0.11 0.06 0.13 0.16 0.15 0.13 0.21 0.20 0.11 0.05 0.05 0.05 0.02 0.01 0.01 0.01 0.01 0.01 0.02 0.02 0.02
0.35 0.31 0.27 0.30 0.28 0.20 0.21 0.35 0.33 0.21 0.08 0.04 0.07 0.10 0.10 0.09 0.08 0.03 0.03 0.06 0.10 0.18 0.27 0.14 0.06 0.07 0.04 0.07 0.19 0.28 0.23 0.19 0.04 0.01 0.02 0.00 0.01 0.01 0.02 0.02 0.02 0.02 0.02
0.40 0.39 0.37 0.39 0.44 0.46 0.37 0.33 0.41 0.50 0.24 0.15 0.21 0.15 0.10 0.11 0.13 0.09 0.05 0.04 0.04 0.10 0.17 0.22 0.12 0.08 0.04 0.02 0.02 0.16 0.16 0.24 0.20 0.08 0.05 0.02 0.01 0.01 0.01 0.01 0.02 0.02 0.01
0.39 0.40 0.38 0.36 0.41 0.61 0.73 0.77 0.72 0.67 0.34 0.26 0.15 0.09 0.08 0.07 0.04 0.07 0.04 0.03 0.03 0.06 0.06 0.08 0.14 0.10 0.05 0.02 0.01 0.03 0.07 0.17 0.26 0.21 0.11 0.03 0.01 0.00 0.00 0.01 0.01 0.01 0.01
0.32 0.33 0.40 0.37 0.48 0.67 0.80 0.76 0.82 0.85 0.86 0.69 0.20 0.07 0.03 0.04 0.01 0.00 0.01 0.02 0.03 0.05 0.06 0.07 0.06 0.07 0.04 0.01 0.00 0.00 0.00 0.01 0.10 0.23 0.25 0.09 0.02 0.02 0.02 0.01 0.01 0.01 0.01
0.29 0.29 0.29 0.52 0.51 0.73 0.95 0.85 0.75 0.65 0.74 0.66 0.46 0.14 0.04 0.00 0.01 0.01 0.01 0.01 0.01 0.02 0.03 0.05 0.04 0.08 0.06 0.03 0.00 0.00 0.00 0.00 0.01 0.06 0.16 0.18 0.11 0.02 0.01 0.01 0.01 0.01 0.01
0.28 0.32 0.40 0.30 0.66 0.95 0.98 1.01 1.13 0.99 0.71 0.61 0.60 0.25 0.11 0.05 0.01 0.01 0.01 0.01 0.00 0.01 0.01 0.04 0.05 0.07 0.06 0.05 0.02 0.01 0.01 0.00 0.00 0.01 0.04 0.11 0.15 0.09 0.02 0.01 0.01 0.01 0.01
0.26 0.38 0.50 0.70 0.60 0.68 0.94 0.95 1.06 0.99 0.99 0.85 0.78 0.48 0.15 0.07 0.02 0.03 0.02 0.02 0.01 0.01 0.00 0.02 0.04 0.08 0.10 0.06 0.02 0.00 0.00 0.00 0.00 0.00 0.00 0.01 0.07 0.09 0.06 0.02 0.01 0.01 0.01
0.36 0.34 0.51 0.83 0.96 0.76 0.81 0.88 0.84 1.07 0.90 0.80 0.64 0.58 0.33 0.10 0.04 0.03 0.02 0.04 0.03 0.03 0.04 0.03 0.02 0.05 0.05 0.07 0.03 0.01 0.00 0.00 0.00 0.00 0.00 0.00 0.00 0.03 0.04 0.03 0.03 0.02 0.02
0.71 0.61 0.71 0.73 0.83 0.66 0.71 0.74 0.86 0.85 0.90 0.92 0.71 0.68 0.65 0.38 0.20 0.13 0.08 0.10 0.06 0.06 0.04 0.03 0.02 0.02 0.03 0.02 0.01 0.04 0.02 0.01 0.01 0.00 0.00 0.00 0.00 0.00 0.01 0.02 0.02 0.02 0.02
1.66 1.31 1.20 0.96 0.74 0.79 0.82 0.84 0.68 0.77 0.73 0.67 0.69 0.75 0.77 0.70 0.49 0.34 0.29 0.27 0.25 0.20 0.14 0.13 0.11 0.08 0.08 0.06 0.03 0.05 0.02 0.01 0.01 0.01 0.00 0.01 0.00 0.00 0.01 0.01 0.01 0.01 0.01
2.83 2.32 1.85 1.59 1.38 1.38 1.21 0.86 0.76 0.84 0.85 0.68 0.75 0.86 0.97 1.05 1.01 0.88 0.80 0.72 0.70 0.79 0.70 0.29 0.26 0.19 0.18 0.11 0.08 0.11 0.07 0.09 0.08 0.06 0.03 0.01 0.01 0.01 0.01 0.01 0.02 0.02 0.04
1.75 2.46 2.61 2.19 1.95 1.42 1.33 1.26 0.93 0.68 0.69 0.87 0.95 0.84 0.94 1.09 1.34 1.24 0.94 0.94 0.83 0.69 0.54 0.21 0.23 0.26 0.22 0.20 0.17 0.18 0.15 0.12 0.09 0.10 0.09 0.06 0.05 0.04 0.03 0.02 0.01 0.01 0.02
1.37 1.40 1.87 2.32 1.89 1.71 1.29 1.08 1.04 1.08 1.03 0.93 0.82 1.01 1.02 0.86 0.83 0.76 0.73 0.76 0.76 0.68 0.53 0.32 0.22 0.18 0.17 0.16 0.18 0.18 0.16 0.16 0.12 0.11 0.09 0.08 0.08 0.09 0.08 0.08 0.07 0.06 0.04
0.81 0.95 1.25 1.46 1.53 1.84 1.66 1.43 1.18 0.93 0.94 0.94 0.89 0.77 0.76 0.95 0.93 0.77 0.76 0.61 0.57 0.62 0.57 0.42 0.22 0.17 0.11 0.11 0.16 0.18 0.22 0.23 0.19 0.19 0.13 0.12 0.14 0.14 0.13 0.13 0.14 0.13 0.12
1.08 0.90 0.83 1.07 1.31 1.35 1.60 1.72 1.81 1.53 1.21 1.00 0.94 0.96 0.86 0.79 0.94 1.06 0.97 0.90 0.77 0.66 0.54 0.54 0.47 0.32 0.25 0.24 0.29 0.28 0.32 0.31 0.22 0.15 0.16 0.14 0.13 0.12 0.15 0.16 0.16 0.16 0.15
1.69 1.34 1.12 0.81 0.83 1.18 1.41 1.46 1.64 1.70 1.67 1.70 1.39 1.13 1.24 1.40 1.24 1.13 1.24 1.34 1.30 1.21 1.19 1.07 0.99 0.86 0.65 0.39 0.30 0.28 0.26 0.18 0.18 0.16 0.18 0.23 0.23 0.18 0.13 0.14 0.13 0.14 0.14
1.21 1.00 1.19 0.77 0.74 0.69 1.04 1.32 1.50 1.57 1.49 1.54 1.68 1.62 1.53 1.59 1.47 1.44 1.46 1.37 1.26 1.29 1.33 1.21 1.07 0.92 0.82 0.80 0.78 0.66 0.58 0.55 0.43 0.24 0.16 0.20 0.22 0.21 0.16 0.14 0.23 0.20 0.19
0.23 0.30 0.41 0.36 0.29 0.30 0.30 0.41 0.70 0.98 1.19 1.31 1.35 1.21 1.12 1.11 1.05 0.90 0.90 0.87 0.88 0.90 0.83 0.77 0.82 0.86 0.73 0.65 0.60 0.63 0.65 0.58 0.51 0.44 0.43 0.48 0.42 0.33 0.28 0.31 0.43 0.28 0.28
0.02 0.04 0.07 0.08 0.06 0.04 0.04 0.03 0.04 0.07 0.15 0.26 0.33 0.32 0.33 0.38 0.50 0.53 0.54 0.59 0.61 0.67 0.76 0.75 0.63 0.62 0.64 0.61 0.56 0.50 0.47 0.48 0.47 0.46 0.54 0.52 0.37 0.40 0.34 0.31 0.49 0.28 0.24
0.01 0.01 0.01 0.02 0.04 0.03 0.04 0.03 0.02 0.05 0.08 0.09 0.16 0.18 0.20 0.19 0.31 0.23 0.12 0.16 0.22 0.26 0.35 0.37 0.36 0.41 0.39 0.33 0.29 0.32 0.51 0.65 0.57 0.41 0.31 0.33 0.27 0.28 0.30 0.32 0.35 0.47 0.34
0.01 0.01 0.01 0.01 0.01 0.02 0.02 0.02 0.02 0.05 0.09 0.13 0.15 0.21 0.33 0.31 0.34 0.32 0.30 0.33 0.34 0.36 0.33 0.30 0.27 0.25 0.23 0.25 0.38 0.34 0.41 0.55 0.55 0.47 0.39 0.44 0.41 0.35 0.40 0.32 0.22 0.23 0.21

GFSMA_prec_precacc24_147.txt.gz
Total_Precipitation_Accumulation
0.08 0.09 0.10 0.12 0.11 0.10 0.13 0.16 0.27 0.26 0.17 0.10 0.10 0.02 0.00 0.02 0.03 0.05 0.11 0.06 0.01 0.05 0.15 0.24 0.28 0.47 0.51 0.34 0.24 0.18 0.21 0.20 0.13 0.08 0.10 0.05 0.02 0.02 0.03 0.05 0.08 0.09 0.07
0.15 0.19 0.14 0.13 0.13 0.09 0.07 0.10 0.15 0.23 0.33 0.22 0.13 0.10 0.01 0.00 0.03 0.04 0.04 0.04 0.01 0.00 0.09 0.19 0.28 0.29 0.37 0.44 0.36 0.25 0.17 0.15 0.19 0.16 0.09 0.03 0.02 0.01 0.01 0.02 0.03 0.05 0.05
0.21 0.21 0.22 0.19 0.12 0.09 0.09 0.09 0.13 0.18 0.24 0.26 0.20 0.22 0.13 0.02 0.01 0.02 0.03 0.03 0.01 0.00 0.02 0.06 0.09 0.14 0.21 0.30 0.24 0.24 0.19 0.13 0.16 0.16 0.15 0.06 0.01 0.01 0.01 0.01 0.01 0.02 0.04
0.23 0.23 0.23 0.20 0.15 0.11 0.10 0.11 0.13 0.15 0.14 0.14 0.14 0.18 0.13 0.07 0.02 0.02 0.02 0.03 0.01 0.01 0.00 0.00 0.02 0.05 0.07 0.16 0.18 0.15 0.13 0.13 0.12 0.14 0.12 0.06 0.01 0.01 0.01 0.01 0.01 0.02 0.03
0.27 0.23 0.22 0.16 0.21 0.20 0.14 0.17 0.22 0.21 0.15 0.09 0.07 0.15 0.22 0.10 0.04 0.02 0.02 0.03 0.03 0.06 0.02 0.00 0.00 0.01 0.05 0.07 0.20 0.22 0.14 0.08 0.08 0.09 0.10 0.06 0.02 0.01 0.01 0.01 0.01 0.02 0.02
0.35 0.31 0.27 0.30 0.28 0.19 0.20 0.36 0.35 0.28 0.19 0.09 0.10 0.12 0.13 0.20 0.14 0.04 0.02 0.01 0.03 0.06 0.06 0.03 0.00 0.00 0.01 0.05 0.16 0.27 0.26 0.20 0.05 0.05 0.07 0.04 0.02 0.01 0.01 0.01 0.01 0.01 0.01
0.40 0.39 0.37 0.39 0.44 0.45 0.37 0.33 0.42 0.54 0.32 0.32 0.43 0.31 0.21 0.25 0.32 0.17 0.07 0.06 0.04 0.04 0.06 0.07 0.03 0.00 0.00 0.00 0.00 0.12 0.16 0.27 0.23 0.11 0.08 0.02 0.01 0.00 0.00 0.00 0.01 0.01 0.01
0.39 0.40 0.38 0.37 0.42 0.61 0.73 0.77 0.72 0.69 0.41 0.44 0.49 0.47 0.58 0.47 0.24 0.22 0.17 0.15 0.10 0.06 0.06 0.05 0.03 0.00 0.00 0.00 0.00 0.00 0.05 0.19 0.31 0.22 0.10 0.02 0.00 0.00 0.00 0.01 0.01 0.00 0.01
0.32 0.34 0.40 0.37 0.49 0.68 0.81 0.76 0.82 0.86 0.89 0.84 0.46 0.51 0.48 0.48 0.45 0.38 0.22 0.17 0.13 0.11 0.11 0.06 0.02 0.01 0.01 0.00 0.00 0.00 0.00 0.01 0.11 0.28 0.28 0.08 0.01 0.01 0.01 0.00 0.00 0.01 0.00
0.30 0.29 0.30 0.52 0.52 0.74 0.96 0.86 0.76 0.66 0.77 0.78 0.94 0.77 0.55 0.33 0.19 0.17 0.28 0.26 0.18 0.15 0.12 0.08 0.04 0.02 0.02 0.02 0.00 0.00 0.00 0.00 0.00 0.04 0.18 0.21 0.11 0.01 0.00 0.00 0.00 0.00 0.00
0.28 0.33 0.41 0.31 0.67 0.96 0.99 1.02 1.14 1.00 0.72 0.65 0.67 0.57 0.70 0.58 0.36 0.34 0.28 0.16 0.14 0.14 0.13 0.12 0.07 0.03 0.01 0.02 0.01 0.00 0.00 0.00 0.00 0.00 0.01 0.09 0.14 0.08 0.01 0.00 0.00 0.00 0.00
0.26 0.38 0.50 0.71 0.61 0.69 0.95 0.96 1.07 0.99 1.01 0.87 0.82 0.59 0.37 0.41 0.34 0.26 0.27 0.35 0.23 0.11 0.10 0.12 0.11 0.07 0.03 0.00 0.00 0.00 0.00 0.00 0.00 0.00 0.00 0.00 0.04 0.07 0.05 0.02 0.01 0.00 0.00
0.35 0.33 0.51 0.83 0.97 0.76 0.82 0.88 0.84 1.08 0.93 0.84 0.67 0.65 0.53 0.28 0.20 0.17 0.14 0.21 0.41 0.42 0.30 0.16 0.10 0.07 0.03 0.02 0.00 0.00 0.00 0.00 0.00 0.00 0.00 0.00 0.00 0.02 0.03 0.02 0.01 0.01 0.01
0.72 0.60 0.63 0.64 0.78 0.63 0.70 0.73 0.86 0.86 0.92 0.98 0.78 0.75 0.74 0.54 0.36 0.27 0.21 0.21 0.18 0.26 0.40 0.21 0.08 0.07 0.05 0.03 0.00 0.01 0.00 0.00 0.00 0.00 0.00 0.00 0.00 0.00 0.01 0.01 0.02 0.01 0.01
1.65 1.25 1.07 0.83 0.64 0.64 0.69 0.75 0.68 0.77 0.74 0.71 0.73 0.79 0.85 0.82 0.73 0.54 0.47 0.45 0.39 0.32 0.26 0.20 0.18 0.11 0.07 0.05 0.02 0.04 0.02 0.00 0.01 0.01 0.00 0.01 0.00 0.00 0.01 0.01 0.01 0.01 0.01
2.80 2.26 1.74 1.46 1.30 1.14 0.86 0.62 0.58 0.68 0.76 0.68 0.77 0.86 1.01 1.20 1.19 1.21 1.18 1.02 1.06 1.04 0.82 0.40 0.33 0.22 0.15 0.07 0.07 0.09 0.06 0.08 0.08 0.06 0.03 0.02 0.01 0.01 0.01 0.01 0.02 0.02 0.04
1.69 2.36 2.49 2.07 2.00 1.42 1.10 1.01 0.73 0.55 0.61 0.79 0.91 0.84 0.97 1.13 1.40 1.39 1.31 1.34 1.19 1.16 0.94 0.51 0.57 0.44 0.22 0.15 0.14 0.16 0.14 0.10 0.08 0.11 0.08 0.07 0.06 0.04 0.03 0.02 0.01 0.01 0.02
1.31 1.33 1.83 2.33 2.04 1.95 1.35 1.05 0.93 0.98 1.00 0.94 0.81 0.95 0.97 0.84 0.81 0.79 0.83 1.09 1.15 1.04 1.09 0.93 0.92 0.91 0.66 0.22 0.13 0.08 0.05 0.07 0.06 0.09 0.16 0.15 0.13 0.12 0.11 0.12 0.11 0.10 0.07
0.90 1.03 1.25 1.48 1.58 1.97 1.76 1.57 1.18 0.89 0.97 0.93 0.90 0.78 0.74 0.93 0.92 0.76 0.79 0.77 0.80 0.91 0.88 0.87 0.98 1.10 1.17 0.67 0.28 0.16 0.14 0.13 0.14 0.17 0.19 0.19 0.19 0.18 0.17 0.17 0.18 0.19 0.19
1.18 1.11 1.12 1.31 1.47 1.43 1.65 1.79 1.85 1.53 1.17 0.96 0.92 0.96 0.84 0.77 0.91 1.05 1.05 1.00 0.96 0.95 0.85 0.93 1.06 1.19 1.23 1.26 0.93 0.62 0.37 0.24 0.14 0.09 0.14 0.11 0.11 0.12 0.16 0.17 0.18 0.17 0.16
1.74 1.48 1.34 1.06 1.03 1.36 1.68 1.62 1.73 1.75 1.66 1.64 1.33 1.06 1.18 1.29 1.18 1.04 1.11 1.30 1.35 1.35 1.53 1.51 1.51 1.69 1.47 1.00 0.88 0.77 0.45 0.28 0.19 0.11 0.11 0.16 0.18 0.16 0.13 0.14 0.15 0.16 0.16
1.21 1.02 1.21 0.80 0.79 0.76 1.08 1.45 1.65 1.78 1.62 1.47 1.57 1.39 1.25 1.26 1.23 1.31 1.39 1.30 1.22 1.35 1.45 1.52 1.56 1.50 1.54 1.51 1.30 0.96 0.70 0.60 0.52 0.30 0.16 0.15 0.16 0.20 0.17 0.16 0.27 0.19 0.17
0.24 0.31 0.44 0.39 0.33 0.32 0.29 0.43 0.75 1.10 1.37 1.46 1.42 1.46 1.38 1.41 1.25 1.08 1.12 1.09 1.05 1.03 1.03 0.99 1.06 1.20 1.16 1.06 0.99 1.03 0.85 0.72 0.70 0.57 0.46 0.39 0.40 0.39 0.35 0.38 0.49 0.33 0.30
0.01 0.03 0.08 0.09 0.06 0.04 0.03 0.03 0.07 0.12 0.19 0.27 0.32 0.36 0.36 0.41 0.58 0.62 0.63 0.74 0.83 0.89 0.93 0.88 0.83 0.91 0.95 0.93 0.88 0.84 0.75 0.64 0.55 0.50 0.54 0.54 0.52 0.56 0.54 0.49 0.63 0.39 0.32
0.01 0.01 0.01 0.02 0.03 0.02 0.01 0.01 0.01 0.02 0.05 0.07 0.08 0.08 0.09 0.09 0.11 0.12 0.09 0.10 0.14 0.20 0.28 0.30 0.28 0.31 0.35 0.35 0.39 0.48 0.65 0.75 0.73 0.58 0.48 0.47 0.40 0.38 0.38 0.40 0.43 0.55 0.44
0.00 0.01 0.01 0.00 0.01 0.01 0.01 0.01 0.00 0.00 0.01 0.01 0.02 0.04 0.05 0.05 0.05 0.06 0.06 0.08 0.12 0.15 0.15 0.15 0.16 0.16 0.13 0.12 0.17 0.18 0.25 0.31 0.34 0.30 0.26 0.32 0.34 0.38 0.45 0.40 0.28 0.24 0.21

GFSMA_prec_precacc24_153.txt.gz
Total_Precipitation_Accumulation
0.06 0.07 0.07 0.11 0.11 0.10 0.12 0.16 0.27 0.30 0.24 0.19 0.15 0.11 0.15 0.23 0.16 0.03 0.18 0.23 0.08 0.08 0.20 0.31 0.32 0.43 0.47 0.33 0.24 0.20 0.23 0.22 0.19 0.18 0.13 0.05 0.02 0.03 0.05 0.09 0.14 0.11 0.07
0.13 0.16 0.13 0.12 0.12 0.08 0.06 0.09 0.15 0.23 0.34 0.29 0.25 0.19 0.04 0.14 0.18 0.21 0.36 0.42 0.22 0.08 0.07 0.21 0.33 0.32 0.37 0.43 0.36 0.25 0.18 0.17 0.25 0.20 0.12 0.04 0.01 0.01 0.01 0.02 0.05 0.06 0.05
0.20 0.20 0.21 0.17 0.12 0.09 0.08 0.08 0.12 0.18 0.23 0.26 0.25 0.30 0.17 0.03 0.05 0.20 0.45 0.27 0.25 0.06 0.03 0.07 0.14 0.17 0.22 0.30 0.24 0.24 0.20 0.15 0.21 0.21 0.20 0.11 0.03 0.00 0.01 0.01 0.01 0.03 0.04
0.22 0.21 0.22 0.19 0.15 0.11 0.09 0.10 0.12 0.14 0.12 0.14 0.14 0.21 0.19 0.11 0.04 0.04 0.31 0.24 0.13 0.08 0.05 0.04 0.04 0.11 0.09 0.15 0.18 0.15 0.14 0.14 0.14 0.15 0.14 0.10 0.05 0.01 0.01 0.01 0.01 0.01 0.03
0.26 0.23 0.21 0.16 0.20 0.20 0.14 0.16 0.20 0.19 0.14 0.09 0.07 0.15 0.26 0.19 0.09 0.04 0.14 0.28 0.12 0.09 0.08 0.06 0.02 0.04 0.11 0.09 0.20 0.23 0.15 0.08 0.08 0.09 0.11 0.07 0.04 0.04 0.02 0.01 0.01 0.01 0.01
0.34 0.31 0.27 0.30 0.26 0.18 0.20 0.34 0.34 0.27 0.19 0.09 0.10 0.12 0.13 0.22 0.21 0.14 0.08 0.13 0.29 0.20 0.18 0.18 0.12 0.03 0.03 0.09 0.17 0.27 0.26 0.20 0.05 0.05 0.07 0.05 0.04 0.02 0.02 0.01 0.01 0.01 0.01
0.39 0.39 0.37 0.38 0.43 0.45 0.37 0.33 0.41 0.52 0.31 0.31 0.42 0.30 0.21 0.27 0.34 0.23 0.15 0.20 0.32 0.25 0.26 0.27 0.26 0.12 0.04 0.03 0.03 0.12 0.17 0.27 0.23 0.11 0.08 0.03 0.01 0.00 0.00 0.00 0.00 0.01 0.01
0.38 0.40 0.38 0.37 0.42 0.62 0.73 0.77 0.72 0.69 0.39 0.42 0.48 0.47 0.58 0.48 0.25 0.26 0.25 0.27 0.42 0.40 0.37 0.37 0.33 0.16 0.06 0.03 0.01 0.02 0.05 0.18 0.30 0.21 0.10 0.02 0.00 0.00 0.00 0.00 0.00 0.00 0.01
0.31 0.34 0.40 0.38 0.50 0.69 0.81 0.76 0.83 0.87 0.89 0.83 0.46 0.52 0.51 0.49 0.45 0.39 0.25 0.22 0.31 0.52 0.68 0.47 0.42 0.19 0.12 0.05 0.03 0.01 0.00 0.01 0.09 0.24 0.26 0.07 0.00 0.01 0.01 0.00 0.00 0.00 0.00
0.24 0.29 0.29 0.52 0.52 0.74 0.97 0.87 0.76 0.66 0.78 0.78 0.94 0.78 0.57 0.36 0.23 0.19 0.29 0.36 0.46 0.39 0.32 0.22 0.20 0.17 0.17 0.12 0.03 0.01 0.01 0.02 0.00 0.03 0.14 0.17 0.10 0.01 0.00 0.00 0.00 0.00 0.00
0.15 0.31 0.40 0.30 0.67 0.96 0.99 1.02 1.14 1.00 0.73 0.65 0.67 0.58 0.71 0.61 0.41 0.40 0.31 0.20 0.22 0.31 0.39 0.48 0.35 0.25 0.22 0.32 0.22 0.09 0.02 0.03 0.02 0.01 0.01 0.06 0.12 0.08 0.01 0.00 0.00 0.00 0.00
0.10 0.34 0.49 0.71 0.61 0.69 0.95 0.96 1.07 0.99 1.01 0.87 0.83 0.60 0.39 0.44 0.38 0.29 0.31 0.39 0.28 0.15 0.19 0.27 0.42 0.37 0.26 0.21 0.20 0.13 0.06 0.03 0.01 0.01 0.00 0.00 0.03 0.07 0.05 0.02 0.01 0.00 0.00
0.07 0.25 0.50 0.83 0.96 0.76 0.82 0.88 0.84 1.08 0.94 0.87 0.69 0.66 0.53 0.30 0.24 0.24 0.20 0.23 0.46 0.50 0.41 0.34 0.31 0.28 0.17 0.19 0.19 0.19 0.13 0.11 0.04 0.01 0.01 0.00 0.00 0.01 0.02 0.02 0.01 0.01 0.01
0.07 0.32 0.55 0.59 0.76 0.62 0.66 0.69 0.83 0.84 0.91 0.98 0.78 0.75 0.75 0.56 0.37 0.30 0.30 0.25 0.22 0.29 0.45 0.43 0.36 0.38 0.36 0.30 0.23 0.24 0.23 0.23 0.19 0.08 0.01 0.00 0.00 0.00 0.01 0.01 0.01 0.01 0.01
0.09 0.25 0.73 0.68 0.61 0.57 0.58 0.61 0.61 0.71 0.68 0.70 0.75 0.78 0.87 0.82 0.70 0.51 0.40 0.41 0.44 0.33 0.24 0.18 0.30 0.42 0.44 0.50 0.31 0.31 0.27 0.21 0.20 0.16 0.10 0.02 0.00 0.00 0.00 0.00 0.01 0.01 0.01
0.15 0.30 1.07 1.06 0.97 0.92 0.68 0.50 0.52 0.64 0.73 0.65 0.69 0.68 0.79 0.94 0.89 0.81 0.77 0.64 0.72 0.73 0.68 0.37 0.27 0.24 0.27 0.28 0.33 0.47 0.34 0.23 0.22 0.19 0.17 0.15 0.03 0.00 0.00 0.01 0.01 0.02 0.04
0.30 0.45 1.36 1.48 1.56 1.07 0.82 0.76 0.56 0.45 0.53 0.76 0.85 0.75 0.74 0.75 0.92 1.15 1.08 0.95 0.85 0.94 0.81 0.54 0.54 0.46 0.38 0.35 0.34 0.47 0.50 0.43 0.33 0.35 0.26 0.22 0.16 0.04 0.01 0.01 0.01 0.01 0.02
0.31 0.45 1.10 1.41 1.19 1.59 1.19 0.99 0.93 0.89 0.90 0.80 0.77 0.92 0.98 0.79 0.80 0.76 0.89 1.29 1.23 1.06 1.11 0.95 0.98 1.01 0.85 0.67 0.60 0.56 0.51 0.51 0.52 0.55 0.48 0.32 0.20 0.16 0.08 0.08 0.08 0.09 0.09
0.45 0.47 0.79 1.09 1.12 1.71 1.68 1.61 1.34 0.96 1.14 1.02 1.02 0.96 0.94 1.00 0.97 0.94 0.90 0.81 0.86 0.93 0.87 0.88 1.05 1.27 1.45 1.12 1.09 1.29 1.26 1.06 1.11 0.85 0.66 0.53 0.39 0.31 0.24 0.18 0.20 0.27 0.30
0.83 0.79 0.78 0.94 1.18 1.26 1.55 1.74 1.85 1.56 1.26 1.09 0.98 1.04 0.93 0.84 0.98 1.09 1.11 1.15 0.99 0.92 0.82 0.90 1.07 1.23 1.31 1.47 1.27 1.30 1.73 1.60 1.26 1.00 0.81 0.82 0.69 0.42 0.32 0.20 0.16 0.16 0.19
1.52 1.27 1.19 0.93 0.88 1.19 1.52 1.48 1.64 1.71 1.64 1.62 1.27 0.98 1.10 1.18 1.07 0.95 1.01 1.22 1.26 1.20 1.29 1.25 1.30 1.58 1.45 1.05 1.05 1.16 1.35 1.43 1.34 1.17 0.94 0.76 0.68 0.61 0.39 0.25 0.14 0.13 0.16
1.12 0.92 1.13 0.74 0.75 0.72 1.02 1.42 1.62 1.75 1.59 1.46 1.57 1.40 1.20 1.16 1.16 1.19 1.20 1.08 0.98 1.10 1.14 1.22 1.35 1.36 1.43 1.45 1.32 1.08 1.12 1.29 1.32 1.16 1.03 0.93 0.87 0.74 0.64 0.42 0.36 0.15 0.13
0.21 0.28 0.42 0.38 0.32 0.31 0.28 0.42 0.75 1.10 1.37 1.47 1.42 1.46 1.35 1.37 1.20 1.09 1.11 1.06 1.00 0.96 0.99 1.00 1.04 1.16 1.16 1.11 1.05 1.10 1.01 1.12 1.36 1.45 1.31 1.12 1.01 0.97 0.87 0.69 0.52 0.27 0.23
0.01 0.03 0.08 0.09 0.06 0.04 0.03 0.03 0.07 0.12 0.19 0.28 0.32 0.35 0.33 0.37 0.52 0.56 0.58 0.68 0.78 0.87 0.93 0.96 1.03 1.13 1.10 1.07 1.05 1.01 0.91 0.78 0.71 0.79 1.13 1.39 1.40 1.31 1.10 0.91 0.76 0.43 0.36
0.00 0.00 0.01 0.02 0.03 0.02 0.00 0.01 0.00 0.02 0.05 0.07 0.08 0.08 0.08 0.09 0.09 0.08 0.07 0.07 0.09 0.15 0.19 0.23 0.28 0.36 0.47 0.50 0.52 0.60 0.79 0.85 0.88 0.76 0.71 0.82 0.90 1.13 1.22 1.02 0.75 0.68 0.52
0.00 0.01 0.00 0.00 0.00 0.01 0.01 0.00 0.00 0.00 0.01 0.01 0.02 0.04 0.04 0.04 0.04 0.05 0.07 0.07 0.08 0.08 0.06 0.05 0.05 0.04 0.03 0.04 0.07 0.10 0.14 0.20 0.34 0.43 0.41 0.55 0.59 0.68 0.79 0.86 0.83 0.64 0.52

GFSMA_prec_precacc24_156.txt.gz
Total_Precipitation_Accumulation
0.06 0.07 0.07 0.11 0.11 0.10 0.12 0.16 0.27 0.30 0.24 0.18 0.13 0.11 0.15 0.25 0.20 0.08 0.22 0.34 0.30 0.15 0.27 0.33 0.37 0.46 0.47 0.32 0.23 0.19 0.23 0.22 0.20 0.19 0.15 0.05 0.02 0.03 0.07 0.12 0.19 0.10 0.06
0.13 0.16 0.13 0.12 0.12 0.08 0.06 0.09 0.15 0.23 0.34 0.29 0.23 0.15 0.04 0.14 0.19 0.26 0.45 0.47 0.37 0.22 0.16 0.23 0.39 0.38 0.38 0.43 0.35 0.25 0.18 0.17 0.25 0.20 0.12 0.04 0.01 0.01 0.01 0.03 0.06 0.06 0.04
0.20 0.20 0.21 0.17 0.12 0.09 0.08 0.08 0.12 0.18 0.23 0.26 0.24 0.24 0.16 0.03 0.05 0.21 0.53 0.33 0.28 0.17 0.10 0.13 0.19 0.23 0.28 0.31 0.22 0.23 0.20 0.15 0.21 0.21 0.20 0.10 0.02 0.00 0.00 0.01 0.01 0.02 0.04
0.22 0.21 0.22 0.19 0.15 0.11 0.09 0.10 0.12 0.14 0.12 0.13 0.13 0.19 0.18 0.10 0.04 0.04 0.31 0.29 0.14 0.13 0.13 0.09 0.09 0.14 0.14 0.17 0.17 0.14 0.13 0.13 0.14 0.15 0.14 0.10 0.05 0.01 0.01 0.01 0.01 0.01 0.03
0.23 0.22 0.21 0.16 0.20 0.20 0.13 0.16 0.20 0.19 0.13 0.08 0.06 0.10 0.22 0.19 0.09 0.04 0.14 0.28 0.13 0.10 0.08 0.12 0.11 0.15 0.16 0.12 0.16 0.17 0.11 0.07 0.08 0.08 0.10 0.07 0.04 0.05 0.03 0.02 0.01 0.01 0.01
0.11 0.23 0.26 0.29 0.26 0.18 0.19 0.34 0.34 0.27 0.19 0.08 0.09 0.10 0.09 0.19 0.20 0.12 0.07 0.13 0.30 0.22 0.19 0.22 0.30 0.27 0.22 0.16 0.20 0.24 0.23 0.19 0.05 0.05 0.06 0.05 0.04 0.03 0.08 0.05 0.02 0.01 0.01
0.03 0.17 0.31 0.37 0.42 0.44 0.37 0.33 0.41 0.52 0.31 0.30 0.41 0.30 0.20 0.25 0.32 0.21 0.14 0.20 0.32 0.26 0.30 0.34 0.40 0.34 0.27 0.25 0.16 0.13 0.16 0.26 0.22 0.11 0.08 0.03 0.01 0.00 0.03 0.03 0.03 0.01 0.00
0.03 0.09 0.24 0.33 0.41 0.61 0.73 0.77 0.72 0.69 0.39 0.42 0.48 0.47 0.57 0.47 0.25 0.24 0.25 0.27 0.42 0.40 0.39 0.40 0.42 0.32 0.21 0.20 0.14 0.12 0.09 0.15 0.26 0.20 0.10 0.01 0.00 0.00 0.00 0.00 0.02 0.02 0.01
0.03 0.06 0.15 0.27 0.45 0.67 0.81 0.77 0.83 0.87 0.89 0.83 0.46 0.53 0.51 0.49 0.45 0.39 0.25 0.22 0.32 0.52 0.70 0.51 0.46 0.24 0.22 0.19 0.15 0.11 0.09 0.06 0.09 0.20 0.23 0.06 0.00 0.00 0.00 0.00 0.00 0.00 0.00
0.01 0.03 0.07 0.35 0.46 0.73 0.96 0.86 0.77 0.67 0.78 0.78 0.94 0.78 0.58 0.37 0.24 0.20 0.29 0.36 0.47 0.41 0.34 0.26 0.25 0.19 0.27 0.36 0.29 0.16 0.08 0.16 0.12 0.05 0.10 0.13 0.08 0.01 0.00 0.00 0.00 0.00 0.00
0.00 0.01 0.03 0.11 0.59 0.92 0.98 1.02 1.14 1.01 0.73 0.66 0.67 0.58 0.72 0.61 0.41 0.40 0.31 0.20 0.22 0.32 0.42 0.49 0.36 0.27 0.26 0.43 0.49 0.43 0.16 0.18 0.17 0.12 0.04 0.03 0.07 0.07 0.01 0.00 0.00 0.00 0.00
0.01 0.01 0.02 0.07 0.31 0.64 0.94 0.96 1.07 1.00 1.02 0.89 0.84 0.60 0.39 0.44 0.38 0.30 0.32 0.40 0.28 0.15 0.21 0.29 0.43 0.38 0.29 0.24 0.26 0.27 0.24 0.17 0.16 0.15 0.10 0.06 0.05 0.08 0.05 0.01 0.01 0.00 0.00
0.02 0.02 0.02 0.05 0.48 0.64 0.80 0.86 0.84 1.09 0.95 0.89 0.71 0.67 0.54 0.31 0.26 0.25 0.21 0.23 0.46 0.50 0.41 0.35 0.33 0.29 0.18 0.23 0.24 0.24 0.24 0.29 0.29 0.17 0.09 0.09 0.07 0.05 0.06 0.03 0.01 0.01 0.01
0.04 0.02 0.02 0.02 0.09 0.29 0.62 0.68 0.83 0.84 0.91 0.99 0.79 0.77 0.76 0.57 0.39 0.32 0.32 0.26 0.23 0.29 0.44 0.42 0.37 0.42 0.39 0.33 0.27 0.32 0.31 0.31 0.27 0.21 0.12 0.08 0.07 0.04 0.04 0.03 0.02 0.01 0.01
0.07 0.04 0.03 0.04 0.05 0.14 0.47 0.59 0.60 0.69 0.67 0.70 0.75 0.79 0.88 0.83 0.71 0.52 0.43 0.44 0.46 0.31 0.18 0.09 0.25 0.39 0.45 0.53 0.35 0.37 0.37 0.34 0.34 0.29 0.26 0.20 0.14 0.12 0.10 0.07 0.03 0.01 0.01
0.13 0.12 0.11 0.08 0.06 0.14 0.36 0.47 0.48 0.61 0.70 0.62 0.67 0.66 0.78 0.94 0.87 0.80 0.77 0.64 0.70 0.65 0.48 0.20 0.15 0.15 0.19 0.30 0.39 0.57 0.47 0.38 0.41 0.47 0.51 0.48 0.30 0.21 0.16 0.12 0.08 0.03 0.03
0.26 0.13 0.12 0.14 0.19 0.18 0.40 0.59 0.48 0.42 0.51 0.72 0.82 0.73 0.72 0.72 0.86 1.03 0.96 0.82 0.76 0.91 0.78 0.51 0.54 0.44 0.35 0.28 0.28 0.40 0.48 0.52 0.57 0.62 0.63 0.70 0.66 0.42 0.22 0.15 0.11 0.07 0.04
0.18 0.13 0.12 0.16 0.28 0.37 0.44 0.63 0.69 0.72 0.73 0.67 0.69 0.85 0.92 0.78 0.77 0.65 0.72 1.14 1.00 0.87 1.11 0.99 1.04 1.07 0.86 0.66 0.57 0.53 0.49 0.49 0.53 0.61 0.54 0.47 0.46 0.43 0.37 0.25 0.20 0.18 0.16
0.40 0.31 0.23 0.21 0.24 0.33 0.43 1.03 0.97 0.70 0.88 0.71 0.78 0.82 0.90 1.04 1.05 1.07 0.96 0.75 0.79 0.89 0.86 0.88 1.08 1.28 1.47 1.13 1.09 1.29 1.25 1.05 1.10 0.86 0.67 0.58 0.56 0.61 0.57 0.45 0.39 0.39 0.38
0.69 0.66 0.57 0.47 0.44 0.52 0.73 0.89 0.99 0.95 1.06 0.94 0.74 0.72 0.74 0.83 1.06 1.26 1.32 1.34 1.08 0.93 0.83 0.88 1.06 1.23 1.30 1.46 1.25 1.27 1.69 1.58 1.27 1.01 0.83 0.85 0.86 0.66 0.60 0.51 0.45 0.33 0.30
1.38 1.06 0.90 0.58 0.41 0.54 0.94 1.02 1.10 1.17 1.33 1.41 1.12 0.88 0.97 1.15 1.08 1.07 1.16 1.39 1.46 1.36 1.34 1.30 1.33 1.60 1.46 1.04 1.03 1.13 1.32 1.41 1.32 1.16 0.94 0.77 0.74 0.86 0.79 0.60 0.53 0.50 0.39
1.06 0.80 0.94 0.49 0.49 0.44 0.60 0.91 1.15 1.34 1.26 1.19 1.36 1.27 1.11 1.08 1.08 1.12 1.18 1.11 1.07 1.22 1.21 1.21 1.32 1.31 1.40 1.39 1.20 0.96 1.04 1.22 1.28 1.16 1.05 0.95 0.90 0.81 0.84 0.87 0.96 0.74 0.54
0.11 0.18 0.28 0.23 0.20 0.18 0.17 0.28 0.53 0.91 1.22 1.34 1.33 1.35 1.27 1.34 1.18 1.06 1.09 1.05 1.01 0.98 1.03 1.03 1.06 1.17 1.17 1.09 0.98 1.02 0.91 1.00 1.30 1.44 1.36 1.17 1.04 1.01 0.95 0.87 0.92 0.87 0.84
0.01 0.03 0.08 0.08 0.05 0.03 0.02 0.03 0.06 0.12 0.19 0.27 0.32 0.34 0.33 0.37 0.52 0.56 0.58 0.68 0.78 0.87 0.93 0.96 1.04 1.15 1.13 1.06 1.02 0.98 0.86 0.77 0.71 0.83 1.16 1.41 1.43 1.37 1.18 1.07 1.12 0.95 0.86
0.00 0.00 0.01 0.02 0.02 0.01 0.00 0.01 0.00 0.02 0.05 0.07 0.08 0.08 0.08 0.09 0.08 0.08 0.07 0.07 0.09 0.15 0.19 0.23 0.27 0.34 0.45 0.49 0.50 0.57 0.77 0.84 0.91 0.83 0.76 0.84 0.95 1.22 1.31 1.19 1.05 1.07 1.07
0.01 0.01 0.00 0.00 0.00 0.01 0.00 0.00 0.00 0.00 0.01 0.01 0.02 0.04 0.03 0.04 0.04 0.05 0.07 0.07 0.08 0.08 0.06 0.05 0.05 0.03 0.03 0.04 0.07 0.10 0.15 0.23 0.39 0.50 0.50 0.58 0.63 0.75 0.89 1.02 1.06 0.94 0.93

GFSMA_prec_precacc24_159.txt.gz
Total_Precipitation_Accumulation
0.05 0.07 0.07 0.11 0.11 0.10 0.12 0.16 0.27 0.30 0.24 0.18 0.13 0.11 0.15 0.25 0.20 0.09 0.23 0.37 0.38 0.17 0.26 0.33 0.31 0.36 0.40 0.29 0.20 0.18 0.22 0.23 0.21 0.24 0.20 0.06 0.01 0.03 0.14 0.26 0.31 0.17 0.07
0.09 0.16 0.13 0.12 0.12 0.08 0.06 0.09 0.15 0.23 0.34 0.29 0.22 0.15 0.04 0.14 0.19 0.26 0.45 0.51 0.48 0.31 0.14 0.27 0.39 0.39 0.39 0.37 0.26 0.21 0.17 0.17 0.25 0.23 0.16 0.08 0.01 0.01 0.01 0.05 0.12 0.10 0.04
0.03 0.12 0.20 0.17 0.12 0.09 0.08 0.08 0.12 0.18 0.23 0.26 0.23 0.19 0.10 0.02 0.05 0.21 0.53 0.33 0.33 0.29 0.16 0.14 0.20 0.27 0.30 0.25 0.14 0.18 0.17 0.14 0.21 0.22 0.21 0.12 0.04 0.00 0.00 0.00 0.00 0.02 0.03
0.01 0.02 0.13 0.19 0.15 0.11 0.09 0.10 0.12 0.14 0.12 0.13 0.13 0.17 0.15 0.06 0.02 0.03 0.31 0.29 0.14 0.13 0.16 0.13 0.16 0.26 0.21 0.17 0.12 0.09 0.11 0.11 0.13 0.15 0.14 0.11 0.07 0.01 0.03 0.00 0.00 0.00 0.02
0.00 0.00 0.03 0.11 0.18 0.18 0.12 0.15 0.19 0.19 0.13 0.08 0.05 0.07 0.19 0.17 0.08 0.03 0.13 0.28 0.13 0.10 0.09 0.16 0.16 0.19 0.24 0.21 0.18 0.12 0.08 0.05 0.06 0.07 0.10 0.07 0.05 0.06 0.06 0.02 0.01 0.00 0.01
0.00 0.00 0.03 0.12 0.18 0.13 0.16 0.31 0.30 0.26 0.19 0.08 0.08 0.06 0.05 0.15 0.17 0.12 0.07 0.12 0.30 0.22 0.19 0.23 0.37 0.33 0.29 0.28 0.31 0.26 0.16 0.06 0.02 0.05 0.06 0.05 0.04 0.04 0.13 0.06 0.02 0.03 0.03
0.00 0.00 0.01 0.10 0.28 0.39 0.35 0.28 0.34 0.48 0.31 0.29 0.36 0.25 0.18 0.22 0.29 0.18 0.13 0.19 0.32 0.26 0.30 0.35 0.42 0.43 0.34 0.37 0.35 0.30 0.26 0.20 0.13 0.08 0.08 0.04 0.01 0.00 0.06 0.09 0.06 0.04 0.02
0.00 0.00 0.01 0.02 0.20 0.54 0.67 0.70 0.68 0.67 0.37 0.38 0.47 0.45 0.55 0.46 0.24 0.23 0.23 0.26 0.42 0.40 0.39 0.40 0.43 0.34 0.26 0.30 0.35 0.41 0.33 0.28 0.25 0.15 0.08 0.02 0.00 0.01 0.01 0.04 0.06 0.07 0.07
0.00 0.01 0.01 0.02 0.07 0.37 0.72 0.72 0.79 0.83 0.88 0.80 0.46 0.53 0.52 0.49 0.45 0.39 0.24 0.22 0.32 0.52 0.70 0.53 0.49 0.27 0.25 0.29 0.31 0.31 0.26 0.19 0.17 0.18 0.18 0.05 0.00 0.00 0.00 0.03 0.03 0.05 0.05
0.00 0.01 0.01 0.01 0.03 0.20 0.79 0.80 0.70 0.61 0.74 0.76 0.91 0.78 0.59 0.38 0.25 0.20 0.29 0.36 0.47 0.41 0.34 0.27 0.26 0.21 0.29 0.38 0.37 0.34 0.32 0.38 0.26 0.16 0.14 0.13 0.04 0.01 0.00 0.01 0.00 0.02 0.03
0.00 0.00 0.01 0.01 0.02 0.03 0.37 0.84 1.03 0.93 0.70 0.63 0.67 0.58 0.72 0.62 0.42 0.41 0.31 0.20 0.22 0.32 0.42 0.49 0.36 0.28 0.29 0.45 0.50 0.50 0.43 0.54 0.60 0.33 0.18 0.14 0.07 0.04 0.04 0.00 0.00 0.00 0.01
0.01 0.01 0.01 0.02 0.02 0.03 0.08 0.58 0.92 0.88 0.95 0.83 0.81 0.60 0.40 0.46 0.39 0.31 0.33 0.41 0.29 0.15 0.21 0.29 0.43 0.38 0.31 0.28 0.27 0.28 0.31 0.34 0.41 0.54 0.35 0.22 0.16 0.16 0.16 0.08 0.02 0.00 0.00
0.02 0.02 0.02 0.02 0.02 0.02 0.02 0.10 0.47 0.93 0.85 0.83 0.70 0.67 0.54 0.32 0.28 0.27 0.24 0.25 0.47 0.50 0.41 0.35 0.33 0.29 0.18 0.25 0.26 0.24 0.25 0.31 0.33 0.47 0.63 0.60 0.34 0.21 0.19 0.14 0.07 0.03 0.02
0.04 0.02 0.02 0.02 0.02 0.02 0.01 0.02 0.24 0.60 0.81 0.93 0.75 0.73 0.76 0.57 0.41 0.33 0.33 0.28 0.24 0.29 0.44 0.42 0.37 0.42 0.39 0.34 0.30 0.35 0.34 0.35 0.32 0.31 0.36 0.50 0.38 0.34 0.19 0.15 0.09 0.06 0.04
0.07 0.04 0.03 0.04 0.04 0.03 0.03 0.04 0.08 0.27 0.54 0.64 0.72 0.76 0.85 0.80 0.70 0.51 0.43 0.45 0.46 0.32 0.18 0.09 0.24 0.37 0.44 0.54 0.38 0.41 0.42 0.40 0.42 0.37 0.33 0.28 0.31 0.33 0.27 0.25 0.20 0.11 0.04
0.11 0.11 0.11 0.08 0.06 0.03 0.02 0.03 0.06 0.11 0.44 0.51 0.59 0.62 0.75 0.93 0.86 0.79 0.77 0.64 0.70 0.65 0.48 0.19 0.14 0.14 0.19 0.31 0.41 0.58 0.50 0.40 0.47 0.54 0.59 0.57 0.38 0.30 0.27 0.25 0.26 0.19 0.11
0.25 0.13 0.12 0.14 0.19 0.13 0.09 0.07 0.07 0.14 0.31 0.62 0.73 0.67 0.68 0.70 0.85 1.02 0.94 0.79 0.74 0.88 0.77 0.50 0.53 0.42 0.35 0.29 0.27 0.39 0.46 0.51 0.57 0.64 0.68 0.81 0.77 0.59 0.46 0.43 0.31 0.21 0.16
0.17 0.13 0.12 0.16 0.28 0.33 0.19 0.19 0.18 0.16 0.34 0.45 0.59 0.78 0.87 0.75 0.74 0.63 0.64 0.95 0.83 0.70 0.90 0.82 0.94 1.05 0.88 0.69 0.61 0.55 0.49 0.49 0.52 0.62 0.56 0.66 0.75 0.65 0.66 0.76 0.82 0.61 0.39
0.37 0.30 0.23 0.21 0.23 0.29 0.28 0.47 0.37 0.20 0.44 0.44 0.61 0.73 0.82 0.96 0.96 1.02 0.94 0.71 0.70 0.75 0.73 0.78 1.03 1.24 1.52 1.21 1.21 1.38 1.28 1.06 1.10 0.85 0.65 0.59 0.63 0.73 0.70 0.67 0.69 0.66 0.54
0.59 0.62 0.56 0.46 0.37 0.27 0.24 0.30 0.33 0.31 0.30 0.39 0.47 0.55 0.55 0.61 0.88 1.06 1.22 1.32 1.08 0.89 0.86 0.93 1.05 1.21 1.31 1.52 1.32 1.44 1.84 1.63 1.28 1.02 0.84 0.85 0.86 0.68 0.62 0.56 0.55 0.47 0.42
1.06 0.97 0.87 0.58 0.38 0.39 0.56 0.47 0.51 0.39 0.32 0.34 0.43 0.48 0.61 0.67 0.63 0.72 0.75 1.03 1.37 1.46 1.47 1.36 1.35 1.60 1.48 1.05 1.10 1.22 1.43 1.54 1.39 1.19 0.94 0.77 0.74 0.86 0.80 0.61 0.53 0.52 0.48
0.99 0.79 0.93 0.48 0.46 0.33 0.39 0.60 0.63 0.77 0.70 0.58 0.70 0.63 0.58 0.64 0.75 0.78 0.89 0.87 0.91 1.27 1.31 1.34 1.49 1.48 1.49 1.44 1.27 1.02 1.06 1.22 1.25 1.14 1.06 0.97 0.90 0.81 0.85 0.87 0.95 0.76 0.60
0.11 0.17 0.27 0.22 0.15 0.08 0.06 0.15 0.26 0.45 0.68 0.81 0.83 0.93 0.87 0.97 0.89 0.83 0.86 0.82 0.81 0.88 1.08 1.14 1.14 1.25 1.29 1.18 1.04 1.07 0.97 1.06 1.30 1.42 1.32 1.14 1.03 1.01 0.95 0.88 0.92 0.87 0.89
0.01 0.03 0.07 0.08 0.04 0.01 0.01 0.01 0.05 0.08 0.13 0.22 0.27 0.30 0.26 0.28 0.40 0.43 0.48 0.61 0.72 0.82 0.91 1.00 1.11 1.24 1.24 1.13 1.08 1.05 0.89 0.78 0.72 0.82 1.08 1.36 1.43 1.38 1.18 1.08 1.12 0.95 0.87
0.00 0.00 0.01 0.02 0.02 0.01 0.01 0.01 0.00 0.02 0.05 0.07 0.08 0.08 0.08 0.09 0.08 0.08 0.07 0.07 0.09 0.15 0.19 0.23 0.29 0.36 0.46 0.51 0.53 0.59 0.79 0.85 0.92 0.85 0.75 0.81 0.95 1.24 1.32 1.19 1.06 1.06 1.07
0.01 0.01 0.00 0.00 0.00 0.01 0.00 0.01 0.00 0.00 0.01 0.01 0.02 0.04 0.03 0.04 0.04 0.05 0.07 0.07 0.08 0.08 0.06 0.05 0.05 0.03 0.03 0.04 0.06 0.11 0.17 0.25 0.42 0.53 0.53 0.61 0.67 0.78 0.91 1.04 1.08 0.96 0.95

GFSMA_prec_precacc24_162.txt.gz
Total_Precipitation_Accumulation
0.01 0.01 0.01 0.06 0.09 0.09 0.11 0.16 0.27 0.30 0.24 0.18 0.13 0.11 0.15 0.25 0.20 0.09 0.23 0.37 0.38 0.17 0.25 0.33 0.32 0.29 0.30 0.18 0.11 0.13 0.17 0.20 0.21 0.29 0.26 0.07 0.02 0.04 0.16 0.31 0.44 0.35 0.24
0.00 0.01 0.01 0.04 0.08 0.07 0.05 0.09 0.14 0.23 0.34 0.29 0.22 0.15 0.04 0.14 0.19 0.26 0.45 0.51 0.48 0.31 0.14 0.24 0.36 0.40 0.36 0.34 0.20 0.13 0.13 0.14 0.24 0.23 0.20 0.12 0.03 0.01 0.02 0.09 0.24 0.23 0.15
0.00 0.00 0.00 0.01 0.05 0.06 0.07 0.06 0.11 0.17 0.22 0.26 0.23 0.19 0.10 0.02 0.05 0.21 0.53 0.33 0.33 0.29 0.16 0.13 0.17 0.25 0.35 0.33 0.22 0.12 0.12 0.13 0.20 0.22 0.22 0.15 0.08 0.02 0.00 0.00 0.04 0.10 0.11
0.00 0.00 0.00 0.00 0.01 0.04 0.06 0.08 0.10 0.13 0.12 0.13 0.13 0.17 0.15 0.06 0.02 0.03 0.31 0.29 0.14 0.13 0.16 0.13 0.15 0.26 0.22 0.20 0.22 0.11 0.10 0.12 0.13 0.14 0.14 0.11 0.10 0.08 0.06 0.01 0.00 0.02 0.03
0.00 0.00 0.00 0.00 0.00 0.03 0.07 0.13 0.17 0.17 0.12 0.07 0.05 0.07 0.19 0.16 0.07 0.03 0.13 0.28 0.13 0.10 0.09 0.16 0.16 0.19 0.25 0.23 0.22 0.17 0.16 0.18 0.10 0.06 0.10 0.07 0.05 0.09 0.16 0.09 0.02 0.00 0.01
0.00 0.00 0.00 0.00 0.00 0.01 0.09 0.28 0.27 0.21 0.16 0.07 0.06 0.05 0.05 0.14 0.15 0.11 0.07 0.12 0.30 0.22 0.19 0.23 0.37 0.33 0.30 0.29 0.31 0.32 0.20 0.14 0.09 0.08 0.06 0.05 0.04 0.05 0.22 0.22 0.11 0.06 0.03
0.00 0.00 0.00 0.00 0.00 0.01 0.07 0.23 0.30 0.43 0.27 0.23 0.30 0.23 0.15 0.18 0.25 0.15 0.12 0.18 0.32 0.26 0.30 0.35 0.42 0.44 0.35 0.39 0.38 0.40 0.36 0.24 0.16 0.11 0.09 0.04 0.01 0.00 0.09 0.20 0.22 0.17 0.08
0.00 0.00 0.00 0.01 0.01 0.02 0.02 0.33 0.63 0.66 0.34 0.29 0.43 0.42 0.54 0.44 0.22 0.21 0.22 0.26 0.41 0.40 0.39 0.41 0.43 0.34 0.26 0.31 0.39 0.51 0.51 0.45 0.38 0.22 0.14 0.02 0.00 0.01 0.01 0.06 0.15 0.21 0.18
0.00 0.00 0.01 0.02 0.02 0.02 0.03 0.12 0.62 0.81 0.86 0.74 0.39 0.52 0.53 0.49 0.45 0.39 0.24 0.22 0.32 0.52 0.70 0.53 0.49 0.27 0.26 0.30 0.33 0.37 0.38 0.37 0.39 0.31 0.27 0.10 0.00 0.00 0.00 0.03 0.06 0.12 0.19
0.00 0.01 0.01 0.01 0.02 0.02 0.03 0.05 0.12 0.41 0.62 0.69 0.82 0.74 0.60 0.40 0.26 0.20 0.29 0.36 0.47 0.41 0.34 0.27 0.26 0.21 0.29 0.39 0.38 0.36 0.37 0.51 0.41 0.31 0.31 0.26 0.07 0.01 0.00 0.01 0.01 0.06 0.14
0.00 0.00 0.01 0.01 0.01 0.02 0.02 0.02 0.05 0.31 0.49 0.50 0.61 0.54 0.72 0.62 0.42 0.42 0.31 0.20 0.22 0.32 0.42 0.49 0.36 0.28 0.29 0.46 0.52 0.52 0.45 0.65 0.88 0.71 0.44 0.37 0.29 0.16 0.07 0.01 0.01 0.01 0.05
0.01 0.01 0.01 0.02 0.02 0.02 0.02 0.01 0.02 0.11 0.46 0.61 0.65 0.50 0.38 0.47 0.41 0.32 0.34 0.41 0.29 0.15 0.21 0.29 0.43 0.38 0.31 0.28 0.28 0.30 0.32 0.36 0.49 0.89 0.89 0.57 0.57 0.40 0.31 0.16 0.05 0.02 0.05
0.01 0.02 0.01 0.02 0.02 0.02 0.02 0.01 0.03 0.04 0.20 0.49 0.52 0.56 0.48 0.32 0.29 0.28 0.25 0.26 0.47 0.50 0.41 0.35 0.33 0.29 0.18 0.25 0.26 0.24 0.25 0.32 0.35 0.50 0.72 0.82 0.70 0.72 0.63 0.31 0.18 0.12 0.09
0.03 0.02 0.02 0.02 0.02 0.02 0.01 0.01 0.03 0.04 0.06 0.18 0.46 0.52 0.64 0.51 0.41 0.34 0.34 0.29 0.25 0.29 0.44 0.42 0.37 0.42 0.39 0.34 0.30 0.35 0.34 0.35 0.33 0.32 0.39 0.55 0.76 0.85 0.94 0.65 0.29 0.21 0.18
0.04 0.03 0.03 0.04 0.04 0.03 0.03 0.03 0.05 0.06 0.06 0.14 0.36 0.56 0.67 0.66 0.64 0.49 0.42 0.45 0.47 0.33 0.18 0.09 0.24 0.37 0.44 0.54 0.38 0.41 0.42 0.40 0.42 0.37 0.37 0.32 0.34 0.42 0.60 0.82 0.76 0.41 0.14
0.06 0.07 0.09 0.08 0.06 0.03 0.02 0.03 0.06 0.08 0.12 0.13 0.16 0.25 0.51 0.75 0.75 0.70 0.72 0.60 0.68 0.64 0.48 0.20 0.14 0.14 0.18 0.31 0.42 0.59 0.52 0.43 0.46 0.54 0.62 0.62 0.43 0.33 0.29 0.30 0.40 0.41 0.24
0.15 0.07 0.09 0.13 0.18 0.13 0.09 0.07 0.06 0.08 0.10 0.13 0.18 0.27 0.29 0.46 0.67 0.92 0.86 0.72 0.67 0.84 0.75 0.50 0.53 0.42 0.36 0.29 0.31 0.44 0.49 0.52 0.56 0.62 0.66 0.83 0.85 0.68 0.55 0.49 0.36 0.33 0.32
0.11 0.09 0.10 0.16 0.27 0.33 0.19 0.19 0.18 0.14 0.19 0.18 0.20 0.26 0.41 0.48 0.54 0.48 0.54 0.88 0.80 0.67 0.87 0.81 0.94 1.04 0.88 0.71 0.64 0.63 0.56 0.51 0.53 0.64 0.58 0.70 0.80 0.71 0.74 0.86 0.89 0.93 0.77
0.20 0.20 0.16 0.18 0.22 0.28 0.26 0.44 0.36 0.20 0.40 0.32 0.38 0.44 0.50 0.69 0.76 0.88 0.83 0.65 0.67 0.72 0.68 0.75 1.02 1.23 1.53 1.27 1.26 1.46 1.41 1.12 1.11 0.88 0.67 0.62 0.68 0.81 0.76 0.72 0.73 0.78 0.77
0.33 0.45 0.49 0.43 0.35 0.24 0.19 0.25 0.27 0.26 0.26 0.31 0.24 0.27 0.27 0.33 0.60 0.88 1.05 1.22 1.01 0.80 0.74 0.80 0.96 1.16 1.26 1.53 1.36 1.49 1.96 1.74 1.34 1.03 0.85 0.87 0.88 0.71 0.70 0.62 0.57 0.51 0.47
0.52 0.62 0.64 0.47 0.34 0.36 0.49 0.37 0.41 0.31 0.25 0.23 0.16 0.11 0.16 0.20 0.28 0.36 0.55 0.86 1.13 1.14 1.14 1.03 1.04 1.27 1.21 0.94 1.19 1.34 1.52 1.69 1.60 1.31 0.96 0.78 0.75 0.86 0.80 0.62 0.53 0.51 0.49
0.14 0.25 0.43 0.33 0.40 0.28 0.32 0.48 0.58 0.72 0.66 0.47 0.48 0.32 0.25 0.20 0.19 0.30 0.39 0.49 0.61 0.83 0.88 0.99 1.23 1.26 1.30 1.26 1.06 1.05 1.20 1.29 1.35 1.36 1.28 1.07 0.94 0.84 0.86 0.87 0.94 0.74 0.59
0.05 0.09 0.18 0.16 0.14 0.06 0.05 0.14 0.25 0.43 0.62 0.69 0.62 0.66 0.53 0.54 0.41 0.35 0.43 0.44 0.45 0.56 0.79 0.87 0.85 1.04 1.20 1.19 1.12 1.10 1.05 1.19 1.44 1.54 1.41 1.27 1.19 1.12 0.98 0.86 0.84 0.81 0.84
0.00 0.02 0.06 0.06 0.03 0.01 0.01 0.01 0.05 0.07 0.10 0.15 0.17 0.18 0.15 0.15 0.21 0.21 0.24 0.34 0.46 0.59 0.69 0.81 0.96 1.08 1.13 1.14 1.15 1.15 0.99 0.91 0.86 0.95 1.16 1.41 1.47 1.45 1.20 1.08 1.07 0.93 0.86
0.00 0.00 0.00 0.01 0.01 0.00 0.00 0.00 0.00 0.01 0.03 0.05 0.06 0.06 0.07 0.07 0.06 0.07 0.06 0.06 0.07 0.12 0.16 0.21 0.29 0.38 0.48 0.52 0.61 0.70 0.89 0.96 1.02 0.94 0.81 0.86 1.00 1.27 1.33 1.20 1.05 1.03 1.05
0.01 0.01 0.00 0.00 0.00 0.00 0.00 0.00 0.00 0.00 0.00 0.00 0.02 0.03 0.03 0.03 0.03 0.04 0.05 0.06 0.07 0.07 0.05 0.05 0.05 0.04 0.04 0.05 0.07 0.14 0.23 0.33 0.50 0.60 0.59 0.67 0.71 0.81 0.93 1.05 1.09 0.96 0.95